Bullhead City, AZ

2:53 AM MST on October 17, 2017 (GMT -0700)
Laughlin-Bullhead International

Weather History for KIFP - December, 2012

Change the Weather History Date:

Thursday, December 6, 2012

  Actual Average Record
Temperature  
Mean Temperature 62 °F -  
Max Temperature 73 °F 63 °F 77 °F (1989)
Min Temperature 50 °F 46 °F 28 °F (2013)
Degree Days  
Heating Degree Days 4    
Growing Degree Days 12 (Base 50)    
Moisture  
Dew Point 42 °F    
Average Humidity 50    
Maximum Humidity 76    
Minimum Humidity 29    
Precipitation  
Precipitation 0.00 in - - ()
Sea Level Pressure  
Sea Level Pressure 29.91 in    
Wind  
Wind Speed 5 mph (NNE)    
Max Wind Speed 17 mph    
Max Gust Speed 21 mph    
Visibility 10 miles    
Events      
Averages and records for this station are not official NWS values.
T = Trace of Precipitation, MM = Missing Value Source: NWS Daily Summary

Daily Weather History Graph

Daily Weather History Graph

Search for Another Location

Airport or City:

Trip Planner

Search our weather history database for the weather conditions in past years. The results will help you decide how hot, cold, wet, or windy it might be!

Date:

Astronomy

Dec. 06, 2012 Rise Set
Actual Time 7:33 AM MST 5:26 PM MST
Civil Twilight 7:05 AM MST 5:54 PM MST
Nautical Twilight 6:33 AM MST 6:25 PM MST
Astronomical Twilight 6:02 AM MST 6:56 PM MST
Moon 12:08 AM MST (12/6) 12:40 PM MST (12/6)
Length of Visible Light 10h 48m
Length of Day
9h 52m
Waning Gibbous, 48% of the Moon is Illuminated
Dec 6
Waning Gibbous
Dec 13
New
Dec 19
First Quarter
Dec 28
Full
Jan 4
Last Quarter

Hourly Weather History & Observations

Time (MST) Temp. Dew Point Humidity Pressure Visibility Wind Dir Wind Speed Gust Speed Precip Events Conditions
12:15 AM 64.4 °F 42.8 °F 45% 29.97 in 10.0 mi Calm Calm - N/A   Clear
12:35 AM 60.8 °F 42.8 °F 52% 29.97 in 10.0 mi North 3.5 mph - N/A   Clear
12:55 AM 60.8 °F 44.6 °F 55% 29.96 in 10.0 mi North 5.8 mph - N/A   Clear
1:15 AM 59.0 °F 44.6 °F 59% 29.96 in 10.0 mi North 4.6 mph - N/A   Clear
1:35 AM 59.0 °F 44.6 °F 59% 29.96 in 10.0 mi North 6.9 mph - N/A   Clear
1:55 AM 59.0 °F 44.6 °F 59% 29.96 in 10.0 mi North 5.8 mph - N/A   Clear
2:15 AM 57.2 °F 44.6 °F 63% 29.96 in 10.0 mi NE 3.5 mph - N/A   Clear
2:35 AM 57.2 °F 44.6 °F 63% 29.96 in 10.0 mi North 4.6 mph - N/A   Clear
2:55 AM 57.2 °F 44.6 °F 63% 29.96 in 10.0 mi North 3.5 mph - N/A   Clear
3:15 AM 57.2 °F 46.4 °F 67% 29.95 in 10.0 mi North 3.5 mph - N/A   Clear
3:35 AM 55.4 °F 44.6 °F 67% 29.95 in 10.0 mi East 3.5 mph - N/A   Clear
3:55 AM 55.4 °F 44.6 °F 67% 29.96 in 10.0 mi NNE 3.5 mph - N/A   Clear
4:15 AM 57.2 °F 46.4 °F 67% 29.95 in 10.0 mi NNE 4.6 mph - N/A   Clear
4:35 AM 55.4 °F 44.6 °F 67% 29.94 in 10.0 mi Calm Calm - N/A   Clear
4:55 AM 55.4 °F 44.6 °F 67% 29.94 in 10.0 mi Calm Calm - N/A   Clear
5:15 AM 55.4 °F 44.6 °F 67% 29.93 in 10.0 mi Calm Calm - N/A   Clear
5:35 AM 55.4 °F 46.4 °F 72% 29.93 in 10.0 mi Calm Calm - N/A   Clear
5:55 AM 53.6 °F 44.6 °F 72% 29.93 in 10.0 mi Calm Calm - N/A   Clear
6:15 AM 53.6 °F 44.6 °F 72% 29.93 in 10.0 mi Calm Calm - N/A   Clear
6:35 AM 53.6 °F 44.6 °F 72% 29.93 in 10.0 mi NE 3.5 mph - N/A   Clear
6:55 AM 53.6 °F 44.6 °F 72% 29.94 in 10.0 mi North 4.6 mph - N/A   Clear
7:15 AM 55.4 °F 44.6 °F 67% 29.94 in 10.0 mi North 3.5 mph - N/A   Clear
7:35 AM 53.6 °F 44.6 °F 72% 29.95 in 10.0 mi South 3.5 mph - N/A   Clear
7:55 AM 51.8 °F 42.8 °F 71% 29.95 in 10.0 mi SSW 4.6 mph - N/A   Clear
8:15 AM 50.0 °F 41.0 °F 71% 29.94 in 10.0 mi South 3.5 mph - N/A   Clear
8:35 AM 50.0 °F 42.8 °F 76% 29.95 in 10.0 mi SSW 3.5 mph - N/A   Clear
8:55 AM 51.8 °F 42.8 °F 71% 29.96 in 10.0 mi Calm Calm - N/A   Clear
9:15 AM 55.4 °F 42.8 °F 63% 29.96 in 10.0 mi South 3.5 mph - N/A   Clear
9:35 AM 55.4 °F 41.0 °F 58% 29.97 in 10.0 mi SW 5.8 mph - N/A   Clear
9:55 AM 57.2 °F 42.8 °F 59% 29.97 in 10.0 mi SSW 5.8 mph - N/A   Clear
10:15 AM 57.2 °F 42.8 °F 59% 29.97 in 10.0 mi SSW 3.5 mph - N/A   Clear
10:35 AM 59.0 °F 42.8 °F 55% 29.97 in 10.0 mi SW 3.5 mph - N/A   Clear
10:55 AM 62.6 °F 44.6 °F 52% 29.97 in 10.0 mi Calm Calm - N/A   Clear
11:15 AM 66.2 °F 42.8 °F 43% 29.96 in 10.0 mi North 9.2 mph - N/A   Clear
11:35 AM 66.2 °F 42.8 °F 43% 29.95 in 10.0 mi North 12.7 mph - N/A   Clear
11:55 AM 66.2 °F 42.8 °F 43% 29.94 in 10.0 mi North 11.5 mph - N/A   Clear
12:15 PM 68.0 °F 41.0 °F 37% 29.92 in 10.0 mi North 12.7 mph - N/A   Clear
12:35 PM 68.0 °F 41.0 °F 37% 29.91 in 10.0 mi North 11.5 mph - N/A   Clear
12:55 PM 71.6 °F 41.0 °F 33% 29.90 in 10.0 mi NNE 12.7 mph - N/A   Clear
1:15 PM 71.6 °F 41.0 °F 33% 29.89 in 10.0 mi North 11.5 mph - N/A   Clear
1:35 PM 71.6 °F 39.2 °F 31% 29.88 in 10.0 mi NNE 11.5 mph - N/A   Clear
1:55 PM 73.4 °F 39.2 °F 29% 29.86 in 10.0 mi North 16.1 mph 20.7 mph N/A   Clear
2:15 PM 73.4 °F 39.2 °F 29% 29.86 in 10.0 mi North 13.8 mph 19.6 mph N/A   Clear
2:35 PM 73.4 °F 39.2 °F 29% 29.84 in 10.0 mi North 17.3 mph - N/A   Clear
2:55 PM 73.4 °F 39.2 °F 29% 29.84 in 10.0 mi NNW 16.1 mph - N/A   Clear
3:15 PM 73.4 °F 39.2 °F 29% 29.84 in 10.0 mi North 13.8 mph - N/A   Clear
3:35 PM 73.4 °F 39.2 °F 29% 29.84 in 10.0 mi North 13.8 mph - N/A   Clear
3:55 PM 73.4 °F 39.2 °F 29% 29.83 in 10.0 mi North 12.7 mph - N/A   Clear
4:15 PM 73.4 °F 39.2 °F 29% 29.83 in 10.0 mi North 13.8 mph - N/A   Clear
4:35 PM 73.4 °F 39.2 °F 29% 29.83 in 10.0 mi North 12.7 mph - N/A   Clear
5:35 PM 71.6 °F 39.2 °F 31% 29.83 in 10.0 mi North 10.4 mph - N/A   Clear
5:55 PM 71.6 °F 39.2 °F 31% 29.84 in 10.0 mi NNE 10.4 mph - N/A   Clear
6:15 PM 69.8 °F 39.2 °F 33% 29.84 in 10.0 mi NNE 9.2 mph - N/A   Clear
6:55 PM 68.0 °F 39.2 °F 35% 29.85 in 10.0 mi NE 9.2 mph - N/A   Clear
7:35 PM 68.0 °F 39.2 °F 35% 29.86 in 10.0 mi ENE 4.6 mph - N/A   Clear
7:55 PM 68.0 °F 41.0 °F 37% 29.86 in 10.0 mi Calm Calm - N/A   Clear
8:15 PM 66.2 °F 41.0 °F 40% 29.87 in 10.0 mi Calm Calm - N/A   Clear
8:35 PM 66.2 °F 41.0 °F 40% 29.87 in 10.0 mi Calm Calm - N/A   Clear
8:55 PM 64.4 °F 39.2 °F 40% 29.88 in 10.0 mi Calm Calm - N/A   Clear
9:15 PM 64.4 °F 41.0 °F 42% 29.88 in 10.0 mi Calm Calm - N/A   Clear
9:35 PM 62.6 °F 39.2 °F 42% 29.88 in 10.0 mi Calm Calm - N/A   Clear
9:55 PM 62.6 °F 39.2 °F 42% 29.89 in 10.0 mi Calm Calm - N/A   Clear
10:15 PM 59.0 °F 39.2 °F 48% 29.89 in 10.0 mi Calm Calm - N/A   Clear
10:35 PM 59.0 °F 37.4 °F 45% 29.89 in 10.0 mi ENE 3.5 mph - N/A   Clear
10:55 PM 57.2 °F 37.4 °F 48% 29.89 in 10.0 mi East 4.6 mph - N/A   Clear
11:15 PM 59.0 °F 37.4 °F 45% 29.90 in 10.0 mi East 3.5 mph - N/A   Clear
11:35 PM 59.0 °F 37.4 °F 45% 29.90 in 10.0 mi Calm Calm - N/A   Clear
11:55 PM 59.0 °F 37.4 °F 45% 29.90 in 10.0 mi ENE 4.6 mph - N/A   Clear